"startDT [UTC]","vpos","CH4 [ppm]","stdev(CH4) [ppm]","CO2 [ppm]","stdev(CO2) [ppm]","H2O_reported [%]","stdev(H2O_reported)","CavityPressure [torr]","CavityTemp [C]","OutletValve","CH4_dry [ppm]","CO2_dry [ppm]","DasTemp [C]","EtalonTemp [C]","WarmBoxTemp [C]","MPVPosition","T_ECpre [C]","T_EC1 [C]","T_EC2 [C]","p_inlet [hPa]","p_in [hPa]","p_out [hPa]","T_inlet [C]","RH_inlet [%]","dwpt_inlet [C]","T_vent [C]","RH_vent [%]","dwpt_vent [C]","flow_vent [l min-1]","flow_inlet [l min-1]","dwpt_sample [C]","T_room [C]"
2013-12-26 00:00:00,0.0,1.90325,0.00031,404.191,0.000,0.0664,0.0011,140.002,45.000,31808.16450,1.90447,404.513,33.688,45.060,45.000,0.00,0.11,-272.58,-272.65,-20,575,-4,22.1,2.1,-29.0,22.1,2.2,-28.2,5.73,2.63,-15.3,28.1
2013-12-26 00:01:00,0.0,1.90289,0.00031,404.191,0.000,0.0684,0.0029,140.002,45.000,31808.25324,1.90426,404.524,33.688,45.060,45.000,0.00,0.11,-272.58,-272.64,-20,575,-4,22.1,2.2,-28.7,22.2,2.3,-28.0,5.73,2.58,-15.3,28.1
2013-12-26 00:02:00,0.0,1.90272,0.00035,404.191,0.000,0.0706,0.0013,140.001,45.000,31808.52825,1.90408,404.531,33.703,45.060,45.000,0.00,0.11,-272.57,-272.64,-20,575,-4,22.1,2.2,-28.4,22.1,2.3,-27.8,5.73,2.54,-15.3,28.1
2013-12-26 00:03:00,0.0,1.90297,0.00038,404.191,0.000,0.0715,0.0016,139.998,45.000,31809.05344,1.90435,404.538,33.691,45.059,45.000,0.00,0.11,-272.58,-272.64,-20,575,-4,22.1,2.3,-28.1,22.2,2.4,-27.6,5.73,2.57,-15.3,28.1
2013-12-26 00:04:00,0.0,1.90265,0.00024,404.191,0.000,0.0727,0.0021,140.001,45.000,31808.85799,1.90399,404.544,33.688,45.060,45.000,0.00,0.11,-272.58,-272.64,-20,575,-4,22.1,2.3,-28.0,22.2,2.4,-27.5,5.73,2.62,-15.3,28.1
2013-12-26 00:05:00,0.0,1.90281,0.00046,404.191,0.000,0.0728,0.0011,139.999,45.000,31808.88265,1.90428,404.543,33.689,45.060,45.000,0.00,0.11,-272.58,-272.64,-20,575,-4,22.1,2.3,-28.0,22.1,2.4,-27.5,5.73,2.64,-15.3,28.1
2013-12-26 00:06:00,0.0,1.90272,0.00033,404.191,0.000,0.0749,0.0016,140.008,45.000,31810.42028,1.90406,404.554,33.688,45.060,45.000,0.00,0.11,-272.58,-272.64,-20,575,-4,22.1,2.3,-27.8,22.2,2.4,-27.3,5.73,2.61,-15.3,28.1
2013-12-26 00:07:00,0.0,1.90305,0.00030,404.191,0.000,0.0743,0.0014,140.001,45.000,31808.43884,1.90432,404.553,33.688,45.060,45.000,0.00,0.11,-272.58,-272.64,-20,575,-4,22.1,2.4,-27.7,22.2,2.5,-27.2,5.73,2.57,-15.3,28.1
2013-12-26 00:08:00,0.0,1.90288,0.00018,404.191,0.000,0.0740,0.0020,140.001,45.000,31809.41426,1.90432,404.550,33.688,45.060,45.000,0.00,0.11,-272.58,-272.64,-20,575,-4,22.0,2.4,-27.7,22.2,2.5,-27.2,5.73,2.55,-15.3,28.1
2013-12-26 00:09:00,0.0,1.90319,0.00043,404.191,0.000,0.0766,0.0020,140.000,45.000,31808.54591,1.90448,404.561,33.688,45.059,45.000,0.00,0.11,-272.57,-272.64,-20,575,-4,22.0,2.4,-27.7,22.2,2.5,-27.0,5.73,2.58,-15.3,28.1
2013-12-26 00:10:00,0.0,1.90281,0.00041,404.191,0.000,0.0747,0.0009,140.000,45.000,31810.59671,1.90431,404.556,33.688,45.059,45.000,0.00,0.11,-272.58,-272.65,-20,575,-4,22.0,2.4,-27.6,22.2,2.5,-27.0,5.73,2.63,-15.3,28.1
2013-12-26 00:11:00,0.0,1.90318,0.00029,404.191,0.000,0.0759,0.0017,140.001,45.000,31811.22106,1.90463,404.560,33.688,45.059,45.000,0.00,0.11,-272.58,-272.64,-20,575,-4,22.0,2.4,-27.6,22.2,2.5,-27.0,5.73,2.65,-15.3,28.1
2013-12-26 00:12:00,0.0,1.90310,0.00020,404.191,0.000,0.0777,0.0018,140.008,45.000,31810.23073,1.90444,404.566,33.687,45.059,45.000,0.00,0.11,-272.57,-272.64,-20,575,-4,22.0,2.4,-27.5,22.1,2.5,-27.0,5.73,2.60,-15.3,28.1
2013-12-26 00:13:00,0.0,1.90338,0.00043,404.191,0.000,0.0779,0.0010,140.003,45.000,31808.52347,1.90466,404.570,33.676,45.060,45.000,0.00,0.11,-272.58,-272.65,-20,575,-4,22.0,2.4,-27.5,22.2,2.5,-26.9,5.73,2.56,-15.3,28.1
2013-12-26 00:14:00,0.0,1.90321,0.00026,404.191,0.000,0.0777,0.0020,140.001,45.000,31807.71601,1.90485,404.570,33.683,45.060,45.000,0.00,0.11,-272.58,-272.64,-20,575,-4,22.0,2.4,-27.5,22.2,2.5,-26.9,5.73,2.55,-15.3,28.1
2013-12-26 00:15:00,0.0,1.90295,0.00020,404.191,0.000,0.0766,0.0021,139.997,45.000,31808.56235,1.90448,404.564,33.688,45.059,45.000,0.00,0.11,-272.58,-272.64,-20,575,-4,22.0,2.4,-27.5,22.1,2.5,-26.9,5.73,2.59,-15.3,28.1
2013-12-26 00:16:00,0.0,1.90288,0.00020,404.191,0.000,0.0766,0.0022,140.008,45.000,31812.86059,1.90429,404.562,33.688,45.059,45.000,0.00,0.11,-272.57,-272.64,-20,575,-4,22.0,2.4,-27.4,22.2,2.6,-26.7,5.73,2.64,-15.3,28.1
2013-12-26 00:17:00,0.0,1.90289,0.00042,404.214,0.000,0.0803,0.0031,139.999,45.000,31807.85329,1.90445,404.602,33.684,45.059,45.000,0.00,0.11,-272.59,-272.64,-20,575,-4,22.1,2.4,-27.5,22.1,2.6,-26.8,5.73,2.64,-15.3,28.1
2013-12-26 00:18:00,0.0,1.90317,0.00031,404.214,0.000,0.0784,0.0014,140.008,45.000,31809.47748,1.90455,404.595,33.688,45.060,45.000,0.00,0.11,-272.58,-272.64,-20,575,-4,22.1,2.4,-27.3,22.2,2.6,-26.7,5.73,2.59,-15.3,28.1
2013-12-26 00:19:00,0.0,1.90299,0.00024,404.214,0.000,0.0794,0.0022,140.005,45.000,31810.24029,1.90455,404.600,33.692,45.060,45.000,0.00,0.11,-272.57,-272.64,-20,575,-4,22.1,2.4,-27.3,22.2,2.6,-26.7,5.73,2.54,-15.3,28.1
2013-12-26 00:20:00,0.0,1.90320,0.00028,404.214,0.000,0.0788,0.0008,140.001,45.000,31807.43878,1.90457,404.596,33.706,45.060,45.000,0.00,0.11,-272.58,-272.65,-20,575,-4,22.1,2.5,-27.3,22.2,2.6,-26.8,5.73,2.56,-15.3,28.1
2013-12-26 00:21:00,0.0,1.90336,0.00035,404.214,0.000,0.0800,0.0015,140.012,45.000,31808.33201,1.90478,404.600,33.706,45.059,45.000,0.00,0.11,-272.58,-272.64,-20,575,-4,22.1,2.5,-27.3,22.2,2.6,-26.7,5.73,2.61,-15.3,28.1
2013-12-26 00:22:00,0.0,1.90317,0.00026,404.214,0.000,0.0794,0.0014,139.992,45.000,31804.96263,1.90484,404.601,33.702,45.060,45.000,0.00,0.11,-272.57,-272.64,-20,575,-4,22.1,2.4,-27.3,22.2,2.6,-26.6,5.73,2.64,-15.3,28.1
2013-12-26 00:23:00,0.0,1.90317,0.00031,404.214,0.000,0.0790,0.0012,139.995,45.000,31804.93218,1.90465,404.599,33.700,45.059,45.000,0.00,0.11,-272.58,-272.64,-20,575,-4,22.1,2.4,-27.3,22.2,2.6,-26.7,5.73,2.63,-15.3,28.1
2013-12-26 00:24:00,0.0,1.90288,0.00032,404.172,0.000,0.0785,0.0011,139.998,45.000,31807.51924,1.90433,404.560,33.712,45.059,45.000,0.00,0.11,-272.58,-272.64,-20,575,-4,22.1,2.4,-27.3,22.2,2.6,-26.6,5.73,2.58,-15.3,28.1
2013-12-26 00:25:00,0.0,1.90339,0.00030,404.172,0.000,0.0794,0.0013,139.998,45.000,31807.16924,1.90483,404.555,33.707,45.060,45.000,0.00,0.11,-272.58,-272.64,-20,575,-4,22.1,2.5,-27.2,22.1,2.6,-26.7,5.73,2.55,-15.2,28.1
2013-12-26 00:26:00,0.0,1.90357,0.00032,404.172,0.000,0.0784,0.0012,140.002,45.000,31808.94923,1.90507,404.554,33.712,45.060,45.000,0.00,0.11,-272.57,-272.64,-20,575,-4,22.1,2.5,-27.2,22.2,2.6,-26.6,5.73,2.57,-15.3,28.1
2013-12-26 00:27:00,0.0,1.90339,0.00048,404.172,0.000,0.0790,0.0013,140.002,45.000,31810.71312,1.90486,404.556,33.722,45.060,45.000,0.00,0.11,-272.58,-272.65,-20,575,-4,22.1,2.5,-27.2,22.2,2.6,-26.8,5.73,2.61,-15.3,28.1
2013-12-26 00:28:00,0.0,1.90296,0.00027,404.172,0.000,0.0795,0.0007,140.001,45.000,31811.66817,1.90448,404.558,33.705,45.059,45.000,0.00,0.11,-272.58,-272.64,-20,575,-4,22.1,2.5,-27.2,22.2,2.6,-26.8,5.73,2.64,-15.2,28.1
2013-12-26 00:29:00,0.0,1.90293,0.00020,404.204,0.045,0.0798,0.0021,140.003,45.000,31810.14539,1.90444,404.579,33.713,45.060,45.000,0.00,0.11,-272.58,-272.64,-20,575,-4,22.1,2.5,-27.2,22.2,2.6,-26.7,5.73,2.62,-15.3,28.1
2013-12-26 00:30:00,0.0,1.90262,0.00023,404.268,0.000,0.0791,0.0015,139.994,45.000,31806.50782,1.90417,404.655,33.696,45.059,45.000,0.00,0.11,-272.58,-272.64,-20,575,-4,22.1,2.5,-27.2,22.2,2.6,-26.8,5.73,2.57,-15.3,28.1
2013-12-26 00:31:00,0.0,1.90309,0.00021,404.268,0.000,0.0773,0.0015,139.995,45.000,31807.08166,1.90438,404.647,33.724,45.059,45.000,0.00,0.11,-272.58,-272.64,-20,575,-4,22.1,2.5,-27.2,22.2,2.6,-26.6,5.73,2.54,-15.3,28.1
2013-12-26 00:32:00,0.0,1.90288,0.00019,404.268,0.000,0.0797,0.0011,139.993,45.000,31805.98948,1.90444,404.654,33.700,45.059,45.000,0.00,0.11,-272.58,-272.64,-20,575,-4,22.0,2.5,-27.3,22.2,2.6,-26.7,5.73,2.57,-15.3,28.1
2013-12-26 00:33:00,0.0,1.90311,0.00013,404.270,0.005,0.0803,0.0031,139.997,45.000,31808.12316,1.90457,404.657,33.697,45.059,45.000,0.00,0.11,-272.58,-272.64,-20,575,-4,22.1,2.5,-27.2,22.1,2.6,-26.7,5.73,2.62,-15.2,28.1
2013-12-26 00:34:00,0.0,1.90286,0.00024,404.280,0.000,0.0786,0.0007,139.999,45.000,31807.50809,1.90441,404.666,33.696,45.060,45.000,0.00,0.11,-272.58,-272.64,-20,575,-4,22.1,2.5,-27.2,22.2,2.6,-26.6,5.73,2.64,-15.2,28.2
2013-12-26 00:35:00,0.0,1.90282,0.00030,404.280,0.000,0.0788,0.0007,140.001,45.000,31808.26428,1.90435,404.664,33.720,45.060,45.000,0.00,0.11,-272.58,-272.64,-20,575,-4,22.1,2.5,-27.3,22.2,2.6,-26.6,5.73,2.61,-15.2,28.1
2013-12-26 00:36:00,0.0,1.90268,0.00017,404.280,0.000,0.0798,0.0025,140.000,45.000,31808.47922,1.90419,404.670,33.697,45.059,45.000,0.00,0.11,-272.58,-272.64,-20,575,-4,22.1,2.5,-27.2,22.2,2.6,-26.6,5.73,2.56,-15.3,28.1
2013-12-26 00:37:00,0.0,1.90260,0.00029,404.283,0.002,0.0806,0.0021,140.000,45.000,31806.22293,1.90406,404.672,33.698,45.059,45.000,0.00,0.11,-272.58,-272.64,-20,575,-4,22.0,2.5,-27.1,22.2,2.6,-26.6,5.73,2.54,-15.3,28.1
2013-12-26 00:38:00,0.0,1.90315,0.00031,404.285,0.000,0.0795,0.0009,139.999,45.000,31805.32353,1.90455,404.673,33.696,45.060,45.000,0.00,0.11,-272.58,-272.65,-20,575,-4,22.1,2.5,-27.1,22.2,2.6,-26.6,5.73,2.58,-15.2,28.1
2013-12-26 00:39:00,0.0,1.90325,0.00041,404.285,0.000,0.0798,0.0023,139.996,45.000,31804.68583,1.90484,404.674,33.733,45.059,45.000,0.00,0.11,-272.57,-272.64,-20,575,-4,22.1,2.5,-27.2,22.2,2.6,-26.6,5.73,2.63,-15.2,28.1
2013-12-26 00:40:00,0.0,1.90331,0.00029,404.285,0.000,0.0800,0.0022,140.000,45.000,31806.20176,1.90460,404.672,33.710,45.060,45.000,0.00,0.11,-272.58,-272.64,-20,575,-4,22.1,2.5,-27.2,22.2,2.6,-26.6,5.73,2.64,-15.2,28.1
2013-12-26 00:41:00,0.0,1.90349,0.00032,404.285,0.000,0.0805,0.0019,140.001,45.000,31807.00548,1.90501,404.677,33.727,45.059,45.000,0.00,0.11,-272.58,-272.64,-20,575,-4,22.1,2.5,-27.2,22.2,2.6,-26.6,5.73,2.61,-15.3,28.1
2013-12-26 00:42:00,0.0,1.90340,0.00013,404.285,0.000,0.0783,0.0014,140.005,45.000,31810.50781,1.90494,404.668,33.741,45.059,45.000,0.00,0.11,-272.57,-272.64,-20,575,-4,22.1,2.5,-27.2,22.2,2.6,-26.6,5.73,2.56,-15.2,28.1
2013-12-26 00:43:00,0.0,1.90267,0.00030,404.285,0.000,0.0801,0.0006,139.997,45.000,31810.33414,1.90438,404.672,33.749,45.059,45.000,0.00,0.11,-272.57,-272.64,-20,575,-4,22.1,2.5,-27.2,22.2,2.6,-26.6,5.73,2.55,-15.3,28.1
2013-12-26 00:44:00,0.0,1.90296,0.00048,404.285,0.000,0.0811,0.0014,140.007,45.000,31812.36214,1.90428,404.678,33.750,45.059,45.000,0.00,0.11,-272.58,-272.64,-20,575,-4,22.1,2.5,-27.2,22.2,2.6,-26.5,5.73,2.59,-15.2,28.1
2013-12-26 00:45:00,0.0,1.90318,0.00025,404.285,0.000,0.0786,0.0021,139.998,45.000,31811.74649,1.90470,404.670,33.750,45.059,45.000,0.00,0.11,-272.58,-272.64,-20,575,-4,22.1,2.5,-27.3,22.2,2.6,-26.6,5.73,2.63,-15.2,28.1
2013-12-26 00:46:00,0.0,1.90315,0.00017,404.285,0.000,0.0791,0.0023,139.997,45.000,31807.59346,1.90463,404.669,33.750,45.059,45.000,0.00,0.11,-272.58,-272.64,-20,575,-4,22.1,2.5,-27.2,22.2,2.6,-26.6,5.73,2.64,-15.2,28.1
2013-12-26 00:47:00,0.0,1.90310,0.00035,404.285,0.000,0.0812,0.0021,140.003,45.000,31810.09680,1.90465,404.680,33.750,45.059,45.000,0.00,0.11,-272.58,-272.64,-20,575,-4,22.1,2.5,-27.3,22.2,2.6,-26.7,5.73,2.60,-15.2,28.1
2013-12-26 00:48:00,0.0,1.90330,0.00026,404.285,0.000,0.0790,0.0030,140.003,45.000,31809.02340,1.90469,404.669,33.743,45.059,45.000,0.00,0.11,-272.58,-272.65,-20,575,-4,22.1,2.5,-27.3,22.2,2.6,-26.6,5.73,2.56,-15.2,28.1
2013-12-26 00:49:00,0.0,1.90326,0.00034,404.285,0.000,0.0783,0.0022,140.004,45.000,31810.47582,1.90473,404.666,33.748,45.060,45.000,0.00,0.11,-272.58,-272.64,-20,575,-4,22.1,2.4,-27.3,22.2,2.6,-26.7,5.73,2.55,-15.2,28.1
2013-12-26 00:50:00,0.0,1.90388,0.00025,404.285,0.000,0.0777,0.0007,140.001,45.000,31807.64458,1.90527,404.663,33.750,45.059,45.000,0.00,0.11,-272.58,-272.65,-20,575,-4,22.1,2.4,-27.3,22.2,2.6,-26.6,5.73,2.58,-15.2,28.1
2013-12-26 00:51:00,0.0,1.90356,0.00028,404.285,0.000,0.0798,0.0019,140.002,45.000,31809.38646,1.90514,404.673,33.750,45.059,45.000,0.00,0.11,-272.58,-272.64,-20,576,-4,22.1,2.4,-27.4,22.2,2.6,-26.7,5.73,2.64,-15.2,28.1
2013-12-26 00:52:00,0.0,1.90341,0.00046,404.285,0.000,0.0779,0.0014,140.007,45.000,31812.70138,1.90493,404.663,33.750,45.059,45.000,0.00,0.11,-272.57,-272.64,-21,575,-4,22.1,2.4,-27.4,22.2,2.6,-26.7,5.73,2.64,-15.2,28.1
2013-12-26 00:53:00,0.0,1.90332,0.00036,404.285,0.000,0.0798,0.0018,140.002,45.000,31809.94655,1.90488,404.673,33.743,45.059,45.000,0.00,0.11,-272.58,-272.64,-20,575,-4,22.1,2.4,-27.3,22.2,2.6,-26.7,5.73,2.58,-15.2,28.1
2013-12-26 00:54:00,0.0,1.90293,0.00021,404.285,0.000,0.0778,0.0021,140.000,45.000,31808.50817,1.90440,404.662,33.744,45.059,45.000,0.00,0.11,-272.58,-272.65,-20,575,-4,22.1,2.4,-27.4,22.2,2.6,-26.7,5.73,2.54,-15.2,28.1
2013-12-26 00:55:00,0.0,1.90294,0.00057,404.349,0.070,0.0783,0.0005,139.999,45.000,31809.18062,1.90432,404.717,33.739,45.059,45.000,0.00,0.11,-272.58,-272.64,-20,576,-4,22.1,2.5,-27.3,22.2,2.6,-26.7,5.73,2.56,-15.2,28.1
2013-12-26 00:56:00,0.0,1.90326,0.00027,404.425,0.000,0.0787,0.0014,139.996,45.000,31806.00620,1.90476,404.808,33.741,45.060,45.000,0.00,0.11,-272.57,-272.64,-21,575,-4,22.1,2.5,-27.2,22.2,2.6,-26.7,5.73,2.63,-15.2,28.1
2013-12-26 00:57:00,0.0,1.90346,0.00066,404.425,0.000,0.0783,0.0018,140.003,45.000,31805.68350,1.90495,404.807,33.741,45.059,45.000,0.00,0.11,-272.58,-272.64,-20,575,-4,22.1,2.5,-27.2,22.2,2.6,-26.7,5.73,2.65,-15.2,28.1
2013-12-26 00:58:00,0.0,1.90342,0.00018,404.444,0.010,0.0791,0.0009,140.003,45.000,31805.52728,1.90482,404.826,33.731,45.059,45.000,0.00,0.11,-272.58,-272.64,-20,575,-4,22.1,2.5,-27.2,22.2,2.6,-26.7,5.73,2.59,-15.2,28.1
2013-12-26 00:59:00,0.0,1.90341,0.00030,404.449,0.000,0.0781,0.0013,139.997,45.000,31805.65661,1.90487,404.829,33.706,45.059,45.000,0.00,0.11,-272.58,-272.64,-20,575,-4,22.0,2.5,-27.3,22.2,2.6,-26.7,5.73,2.54,-15.2,28.1
2013-12-26 01:00:00,0.0,1.90297,0.00033,404.449,0.000,0.0781,0.0014,140.003,45.000,31809.91898,1.90449,404.831,33.740,45.060,45.000,0.00,0.11,-272.58,-272.64,-20,575,-4,22.1,2.5,-27.2,22.2,2.6,-26.7,5.73,2.56,-15.2,28.1
2013-12-26 01:01:00,0.0,1.90290,0.00036,404.449,0.000,0.0790,0.0015,140.003,45.000,31808.77905,1.90447,404.833,33.742,45.060,45.000,0.00,0.11,-272.58,-272.64,-20,575,-4,22.1,2.5,-27.2,22.2,2.6,-26.6,5.73,2.61,-15.2,28.1
2013-12-26 01:02:00,0.0,1.90330,0.00044,404.449,0.000,0.0791,0.0017,139.997,45.000,31804.80020,1.90465,404.835,33.750,45.060,45.000,0.00,0.11,-272.58,-272.64,-20,575,-4,22.1,2.5,-27.2,22.2,2.6,-26.6,5.73,2.64,-15.2,28.1
2013-12-26 01:03:00,0.0,1.90328,0.00055,404.449,0.000,0.0794,0.0008,139.994,45.000,31805.86804,1.90493,404.835,33.750,45.059,45.000,0.00,0.11,-272.58,-272.64,-20,575,-4,22.1,2.5,-27.2,22.2,2.6,-26.6,5.73,2.61,-15.2,28.1
2013-12-26 01:04:00,0.0,1.90311,0.00021,404.449,0.000,0.0807,0.0012,139.997,45.000,31808.36985,1.90461,404.840,33.747,45.059,45.000,0.00,0.11,-272.58,-272.65,-20,575,-4,22.1,2.5,-27.2,22.2,2.6,-26.5,5.73,2.55,-15.2,28.1
2013-12-26 01:05:00,0.0,1.90260,0.00030,404.449,0.000,0.0809,0.0013,139.996,45.000,31809.65843,1.90421,404.843,33.750,45.059,45.000,0.00,0.11,-272.58,-272.65,-20,575,-4,22.1,2.5,-27.1,22.2,2.6,-26.6,5.73,2.54,-15.2,28.1
2013-12-26 01:06:00,0.0,1.90305,0.00017,404.449,0.000,0.0805,0.0007,139.994,45.000,31807.80165,1.90447,404.841,33.750,45.059,45.000,0.00,0.11,-272.58,-272.64,-20,575,-4,22.1,2.5,-27.1,22.2,2.6,-26.5,5.73,2.60,-15.2,28.1
2013-12-26 01:07:00,0.0,1.90334,0.00027,404.449,0.000,0.0804,0.0014,140.001,45.000,31808.79677,1.90477,404.840,33.750,45.060,45.000,0.00,0.11,-272.58,-272.64,-20,576,-4,22.1,2.5,-27.2,22.2,2.6,-26.6,5.73,2.65,-15.2,28.1
2013-12-26 01:08:00,0.0,1.90335,0.00019,404.449,0.000,0.0807,0.0008,140.007,45.000,31808.97178,1.90484,404.842,33.754,45.060,45.000,0.00,0.11,-272.58,-272.65,-21,575,-4,22.1,2.5,-27.2,22.2,2.6,-26.6,5.73,2.62,-15.2,28.1
2013-12-26 01:09:00,0.0,1.90317,0.00024,404.430,0.032,0.0813,0.0018,139.996,45.000,31811.48614,1.90475,404.832,33.756,45.060,45.000,0.00,0.11,-272.58,-272.64,-20,575,-4,22.1,2.5,-27.1,22.2,2.6,-26.4,5.73,2.57,-15.2,28.1
2013-12-26 01:10:00,0.0,1.90292,0.00032,404.378,0.000,0.0827,0.0014,139.996,45.000,31810.45349,1.90458,404.779,33.750,45.060,45.000,0.00,0.11,-272.58,-272.64,-20,575,-4,22.1,2.5,-27.1,22.2,2.6,-26.4,5.73,2.54,-15.2,28.1
2013-12-26 01:11:00,0.0,1.90249,0.00020,404.378,0.000,0.0798,0.0015,140.000,45.000,31813.81230,1.90404,404.769,33.751,45.059,45.000,0.00,0.11,-272.58,-272.64,-20,576,-4,22.1,2.5,-27.1,22.2,2.6,-26.5,5.73,2.58,-15.2,28.2
2013-12-26 01:12:00,0.0,1.90293,0.00046,404.393,0.014,0.0810,0.0015,140.003,45.000,31812.21189,1.90436,404.784,33.754,45.060,45.000,0.00,0.11,-272.58,-272.64,-21,575,-4,22.1,2.5,-27.1,22.2,2.6,-26.4,5.73,2.63,-15.2,28.2
2013-12-26 01:13:00,0.0,1.90301,0.00017,404.405,0.000,0.0804,0.0013,140.000,45.000,31811.61096,1.90445,404.797,33.758,45.060,45.000,0.00,0.11,-272.57,-272.64,-20,575,-4,22.1,2.5,-27.1,22.2,2.6,-26.5,5.73,2.64,-15.2,28.2
2013-12-26 01:14:00,0.0,1.90291,0.00026,404.405,0.000,0.0807,0.0016,140.004,45.000,31811.22747,1.90447,404.797,33.750,45.059,45.000,0.00,0.11,-272.58,-272.64,-20,575,-4,22.2,2.5,-27.2,22.2,2.6,-26.6,5.73,2.59,-15.2,28.2
2013-12-26 01:15:00,0.0,1.90292,0.00040,404.405,0.000,0.0811,0.0016,140.004,45.000,31811.19990,1.90439,404.800,33.750,45.059,45.000,0.00,0.11,-272.58,-272.64,-20,576,-4,22.1,2.5,-27.0,22.2,2.6,-26.4,5.73,2.53,-15.2,28.2
2013-12-26 01:16:00,0.0,1.90331,0.00023,404.405,0.000,0.0805,0.0009,140.000,45.000,31811.51636,1.90475,404.796,33.752,45.059,45.000,0.00,0.11,-272.57,-272.64,-21,576,-4,22.1,2.5,-27.1,22.2,2.6,-26.4,5.73,2.56,-15.2,28.1
2013-12-26 01:17:00,0.0,1.90299,0.00033,404.405,0.000,0.0827,0.0009,140.000,45.000,31811.89568,1.90459,404.806,33.751,45.059,45.000,0.00,0.11,-272.58,-272.64,-20,575,-4,22.1,2.5,-27.1,22.2,2.6,-26.5,5.73,2.61,-15.2,28.2
2013-12-26 01:18:00,0.0,1.90311,0.00049,404.428,0.017,0.0805,0.0015,139.998,45.000,31809.60783,1.90470,404.818,33.750,45.060,45.000,0.00,0.11,-272.58,-272.65,-20,575,-4,22.1,2.5,-27.1,22.2,2.6,-26.4,5.73,2.64,-15.2,28.2
2013-12-26 01:19:00,0.0,1.90320,0.00010,404.441,0.000,0.0805,0.0011,140.003,45.000,31810.99000,1.90459,404.833,33.757,45.060,45.000,0.00,0.11,-272.57,-272.64,-20,576,-4,22.1,2.5,-27.1,22.2,2.6,-26.5,5.73,2.62,-15.2,28.2
2013-12-26 01:20:00,0.0,1.90331,0.00036,404.441,0.000,0.0804,0.0013,139.999,45.000,31810.26957,1.90471,404.834,33.750,45.060,45.000,0.00,0.11,-272.58,-272.64,-20,576,-4,22.1,2.5,-27.1,22.2,2.6,-26.5,5.73,2.57,-15.2,28.2
2013-12-26 01:21:00,0.0,1.90335,0.00033,404.441,0.000,0.0805,0.0013,140.001,45.000,31810.61446,1.90495,404.833,33.750,45.059,45.000,0.00,0.11,-272.58,-272.64,-20,575,-4,22.1,2.5,-27.1,22.2,2.6,-26.5,5.73,2.54,-15.2,28.2
2013-12-26 01:22:00,0.0,1.90339,0.00035,404.441,0.000,0.0794,0.0017,139.995,45.000,31808.02858,1.90497,404.828,33.750,45.060,45.000,0.00,0.11,-272.58,-272.64,-20,575,-4,22.1,2.5,-27.2,22.2,2.6,-26.6,5.73,2.58,-15.2,28.2
2013-12-26 01:23:00,0.0,1.90272,0.00035,404.441,0.000,0.0795,0.0003,139.999,45.000,31810.41724,1.90422,404.829,33.750,45.059,45.000,0.00,0.11,-272.58,-272.64,-20,575,-4,22.1,2.5,-27.3,22.2,2.6,-26.6,5.73,2.63,-15.2,28.1
2013-12-26 01:24:00,0.0,1.90318,0.00036,404.441,0.000,0.0793,0.0011,140.005,45.000,31812.53998,1.90472,404.828,33.750,45.060,45.000,0.00,0.11,-272.58,-272.64,-20,576,-4,22.1,2.4,-27.3,22.2,2.6,-26.6,5.73,2.63,-15.2,28.1
2013-12-26 01:25:00,0.0,1.90356,0.00072,404.441,0.000,0.0788,0.0012,139.991,45.000,31808.74129,1.90502,404.824,33.750,45.059,45.000,0.00,0.11,-272.58,-272.64,-20,575,-4,22.1,2.4,-27.4,22.2,2.5,-26.8,5.73,2.60,-15.3,28.1
2013-12-26 01:26:00,0.0,1.90313,0.00040,404.439,0.007,0.0776,0.0015,139.996,45.000,31809.41246,1.90456,404.820,33.750,45.059,45.000,0.00,0.11,-272.57,-272.64,-20,575,-4,22.1,2.4,-27.4,22.2,2.5,-26.8,5.73,2.56,-15.2,28.2
2013-12-26 01:27:00,0.0,1.90318,0.00023,404.415,0.000,0.0767,0.0012,139.993,45.000,31809.66285,1.90458,404.788,33.763,45.059,45.000,0.00,0.11,-272.58,-272.64,-20,575,-4,22.1,2.4,-27.4,22.2,2.5,-26.8,5.73,2.54,-15.2,28.1
2013-12-26 01:28:00,0.0,1.90348,0.00032,404.415,0.000,0.0774,0.0016,140.000,45.000,31810.04316,1.90491,404.790,33.797,45.059,45.000,0.00,0.11,-272.58,-272.64,-20,576,-4,22.2,2.4,-27.5,22.2,2.5,-26.9,5.73,2.59,-15.2,28.1
2013-12-26 01:29:00,0.0,1.90329,0.00050,404.415,0.000,0.0751,0.0005,140.002,45.000,31811.31238,1.90483,404.783,33.803,45.059,45.000,0.00,0.11,-272.58,-272.64,-21,576,-4,22.2,2.4,-27.5,22.2,2.5,-27.0,5.73,2.64,-15.2,28.2
2013-12-26 01:30:00,0.0,1.90330,0.00035,404.415,0.000,0.0766,0.0004,139.998,45.000,31811.17139,1.90461,404.787,33.792,45.059,45.000,0.00,0.11,-272.57,-272.64,-20,575,-4,22.2,2.4,-27.6,22.2,2.5,-27.0,5.73,2.63,-15.2,28.2
2013-12-26 01:31:00,0.0,1.90319,0.00027,404.415,0.000,0.0784,0.0033,139.999,45.000,31810.31296,1.90465,404.795,33.809,45.059,45.000,0.00,0.11,-272.58,-272.64,-20,575,-4,22.2,2.4,-27.5,22.2,2.5,-27.0,5.73,2.58,-15.3,28.2
2013-12-26 01:32:00,0.0,1.90355,0.00029,404.415,0.000,0.0759,0.0015,139.998,45.000,31809.42203,1.90492,404.787,33.807,45.059,45.000,0.00,0.11,-272.57,-272.64,-20,576,-4,22.2,2.4,-27.5,22.2,2.5,-27.1,5.73,2.54,-15.3,28.2
2013-12-26 01:33:00,0.0,1.90326,0.00055,404.415,0.000,0.0771,0.0015,139.997,45.000,31808.99821,1.90474,404.788,33.813,45.059,45.000,0.00,0.11,-272.57,-272.64,-20,576,-4,22.2,2.4,-27.6,22.3,2.5,-27.0,5.73,2.56,-15.3,28.2
2013-12-26 01:34:00,0.0,1.90327,0.00035,404.415,0.000,0.0780,0.0014,140.011,45.000,31814.03284,1.90484,404.793,33.813,45.059,45.000,0.00,0.11,-272.58,-272.64,-20,576,-4,22.2,2.4,-27.6,22.3,2.5,-27.0,5.73,2.60,-15.3,28.2
2013-12-26 01:35:00,0.0,1.90368,0.00024,404.415,0.000,0.0758,0.0013,140.002,45.000,31812.23578,1.90491,404.787,33.813,45.059,45.000,0.00,0.11,-272.58,-272.64,-20,576,-4,22.2,2.4,-27.6,22.3,2.5,-27.0,5.73,2.64,-15.3,28.2
2013-12-26 01:36:00,0.0,1.90352,0.00026,404.415,0.000,0.0756,0.0014,139.995,45.000,31809.31777,1.90498,404.781,33.813,45.059,45.000,0.00,0.11,-272.57,-272.64,-20,576,-4,22.2,2.3,-27.7,22.3,2.5,-26.9,5.73,2.63,-15.3,28.2
2013-12-26 01:37:00,0.0,1.90367,0.00023,404.415,0.000,0.0765,0.0020,140.001,45.000,31810.79370,1.90510,404.786,33.813,45.059,45.000,0.00,0.11,-272.58,-272.64,-20,576,-4,22.2,2.4,-27.6,22.3,2.5,-27.0,5.73,2.58,-15.3,28.2
2013-12-26 01:38:00,0.0,1.90373,0.00036,404.415,0.000,0.0755,0.0024,140.004,45.000,31812.00660,1.90517,404.785,33.813,45.059,45.000,0.00,0.11,-272.58,-272.64,-20,576,-4,22.2,2.3,-27.7,22.3,2.5,-27.1,5.73,2.54,-15.2,28.2
2013-12-26 01:39:00,0.0,1.90339,0.00032,404.415,0.000,0.0765,0.0008,140.002,45.000,31813.24401,1.90480,404.787,33.805,45.059,45.000,0.00,0.11,-272.57,-272.64,-20,576,-4,22.2,2.3,-27.7,22.3,2.5,-27.0,5.73,2.56,-15.3,28.2
2013-12-26 01:40:00,0.0,1.90353,0.00037,404.415,0.000,0.0760,0.0023,140.003,45.000,31811.76958,1.90512,404.787,33.813,45.059,45.000,0.00,0.11,-272.57,-272.64,-20,576,-4,22.2,2.3,-27.8,22.3,2.5,-27.1,5.73,2.61,-15.2,28.2
2013-12-26 01:41:00,0.0,1.90355,0.00033,404.415,0.000,0.0741,0.0008,139.994,45.000,31808.76320,1.90469,404.775,33.800,45.059,45.000,0.00,0.11,-272.58,-272.64,-20,576,-4,22.2,2.3,-27.8,22.3,2.4,-27.2,5.73,2.64,-15.3,28.2
2013-12-26 01:42:00,0.0,1.90393,0.00056,404.415,0.000,0.0751,0.0005,140.000,45.000,31809.14046,1.90546,404.779,33.801,45.059,45.000,0.00,0.11,-272.58,-272.64,-21,576,-4,22.2,2.3,-27.8,22.3,2.4,-27.2,5.73,2.62,-15.3,28.2
2013-12-26 01:43:00,0.0,1.90418,0.00065,404.646,0.000,0.0755,0.0009,139.995,45.000,31807.12533,1.90545,404.993,33.796,45.059,45.000,0.00,0.11,-272.57,-272.64,-20,576,-4,22.2,2.3,-27.8,22.2,2.4,-27.3,5.73,2.58,-15.3,28.2
2013-12-26 01:44:00,0.0,1.90394,0.00020,404.646,0.000,0.0748,0.0019,140.006,45.000,31810.61017,1.90548,405.012,33.809,45.059,45.000,0.00,0.11,-272.57,-272.64,-20,576,-4,22.2,2.3,-27.8,22.3,2.4,-27.2,5.73,2.54,-15.3,28.2
2013-12-26 01:45:00,0.0,1.90371,0.00023,404.646,0.000,0.0752,0.0006,140.000,45.000,31811.06968,1.90507,405.010,33.796,45.060,45.000,0.00,0.11,-272.58,-272.65,-20,576,-4,22.2,2.3,-27.8,22.3,2.5,-27.1,5.73,2.57,-15.3,28.2